Location: Eindhoven
(51.4416°N, 5.4697°E)
Time: 05:40:12
(UTC+01:00)

deb Explorer IX - Pass Details

Date: 22 November 2019
Orbit: 546 x 1104 km, 38.8° (Epoch: 14 December)

Event Time Altitude Azimuth Distance (km) Brightness Sun altitude
Rises 03:51:59 0° 255° (WSW) 3,605 - -39.0°
Reaches altitude 10° 03:55:24 10° 240° (WSW) 2,551 - -38.4°
Maximum altitude 03:59:38 20° 196° (SSW) 1,809 - -37.8°
Drops below altitude 10° 04:03:26 10° 150° (SSE) 2,266 - -37.2°
Exits shadow 04:04:46 - 141° (SE) 2,619 ? -37.0°
Sets 04:06:17 0° 133° (SE) 3,084 ? -36.8°
